Location: Laterina
(43.5167°N, 11.7167°E)
Time: 04:49:42
(UTC+00:00)

Cosmos 1125 Rocket - Pass Details

Date: 21 June 2021
Orbit: 757 x 780 km, 74.0° (Epoch: 26 July)

Event Time Altitude Azimuth Distance (km) Brightness Sun altitude
Rises 00:28:26 0° 349° (NNW) 3,244 7.8 -20.9°
Reaches altitude 10° 00:31:12 10° 2° (N) 2,318 7.0 -20.8°
Maximum altitude 00:35:34 26° 58° (ENE) 1,486 5.5 -20.5°
Drops below altitude 10° 00:39:57 10° 115° (ESE) 2,318 5.9 -20.3°
Sets 00:42:42 0° 127° (SE) 3,245 6.6 -20.1°
